Time,TemperatureF,DewpointF,PressureIn,WindDirection,WindDirectionDegrees,WindSpeedMPH,WindSpeedGustMPH,Humidity,HourlyPrecipIn,Conditions,Clouds,dailyrainin,SoftwareType,DateUTC
2013-04-05 00:00:00,37.2,24.0,29.28,South,180,1.0,9.0,57,0.00,,,0.00,Rainwise IP-100,2013-04-05 04:00:00,
2013-04-05 00:01:00,37.2,24.0,29.28,SSW,202,0.0,7.0,58,0.00,,,0.00,Rainwise IP-100,2013-04-05 04:01:00,
2013-04-05 00:04:00,37.1,24.0,29.28,NW,315,0.0,7.0,59,0.00,,,0.00,Rainwise IP-100,2013-04-05 04:04:00,
2013-04-05 00:06:00,36.9,24.0,29.28,SSW,202,1.0,5.0,58,0.00,,,0.00,Rainwise IP-100,2013-04-05 04:06:00,
2013-04-05 00:11:00,36.8,24.0,29.28,South,180,4.0,7.0,61,0.00,,,0.00,Rainwise IP-100,2013-04-05 04:11:00,
2013-04-05 00:16:00,36.9,24.0,29.28,SW,225,1.0,6.0,61,0.00,,,0.00,Rainwise IP-100,2013-04-05 04:16:00,
2013-04-05 00:21:00,36.6,24.0,29.28,SE,135,0.0,6.0,60,0.00,,,0.00,Rainwise IP-100,2013-04-05 04:21:00,
2013-04-05 00:26:00,36.3,24.0,29.28,South,180,1.0,5.0,61,0.00,,,0.00,Rainwise IP-100,2013-04-05 04:26:00,
2013-04-05 00:32:00,36.1,24.0,29.28,South,180,3.0,6.0,61,0.00,,,0.00,Rainwise IP-100,2013-04-05 04:32:00,
2013-04-05 00:37:00,36.0,24.0,29.28,SSW,202,2.0,6.0,62,0.00,,,0.00,Rainwise IP-100,2013-04-05 04:37:00,
2013-04-05 00:42:00,35.7,24.0,29.27,SSE,157,4.0,5.0,62,0.00,,,0.00,Rainwise IP-100,2013-04-05 04:42:00,
2013-04-05 00:47:00,35.7,24.0,29.27,SSE,157,0.0,6.0,64,0.00,,,0.00,Rainwise IP-100,2013-04-05 04:47:00,
2013-04-05 00:52:00,35.6,26.0,29.27,SSW,202,0.0,6.0,65,0.00,,,0.00,Rainwise IP-100,2013-04-05 04:52:00,
2013-04-05 00:57:00,35.4,24.0,29.27,SSW,202,1.0,6.0,64,0.00,,,0.00,Rainwise IP-100,2013-04-05 04:57:00,
2013-04-05 01:02:00,35.7,26.0,29.27,SW,225,2.0,6.0,65,0.00,,,0.00,Rainwise IP-100,2013-04-05 05:02:00,
2013-04-05 01:08:00,35.7,26.0,29.27,SSE,157,1.0,6.0,66,0.00,,,0.00,Rainwise IP-100,2013-04-05 05:08:00,
2013-04-05 01:13:00,35.7,26.0,29.27,South,180,3.0,6.0,65,0.00,,,0.00,Rainwise IP-100,2013-04-05 05:13:00,
2013-04-05 01:18:00,35.4,24.0,29.27,SSE,157,4.0,7.0,66,0.00,,,0.00,Rainwise IP-100,2013-04-05 05:18:00,
2013-04-05 01:23:00,35.4,24.0,29.26,SW,225,2.0,7.0,66,0.00,,,0.00,Rainwise IP-100,2013-04-05 05:23:00,
2013-04-05 01:28:00,35.3,24.0,29.26,SSW,202,2.0,6.0,67,0.00,,,0.00,Rainwise IP-100,2013-04-05 05:28:00,
2013-04-05 01:33:00,35.3,24.0,29.26,SSE,157,3.0,7.0,67,0.00,,,0.00,Rainwise IP-100,2013-04-05 05:33:00,
2013-04-05 01:38:00,35.2,26.0,29.26,South,180,3.0,6.0,68,0.00,,,0.00,Rainwise IP-100,2013-04-05 05:38:00,
2013-04-05 01:43:00,35.2,26.0,29.26,South,180,4.0,6.0,69,0.00,,,0.00,Rainwise IP-100,2013-04-05 05:43:00,
2013-04-05 01:49:00,35.1,26.0,29.25,SE,135,3.0,6.0,68,0.00,,,0.00,Rainwise IP-100,2013-04-05 05:49:00,
2013-04-05 01:54:00,34.9,26.0,29.25,WNW,292,0.0,6.0,69,0.00,,,0.00,Rainwise IP-100,2013-04-05 05:54:00,
2013-04-05 01:59:00,34.9,26.0,29.25,SSE,157,4.0,7.0,69,0.00,,,0.00,Rainwise IP-100,2013-04-05 05:59:00,
2013-04-05 02:04:00,34.7,26.0,29.25,SW,225,1.0,6.0,71,0.00,,,0.00,Rainwise IP-100,2013-04-05 06:04:00,
2013-04-05 02:09:00,34.7,26.0,29.25,SSW,202,6.0,7.0,71,0.00,,,0.00,Rainwise IP-100,2013-04-05 06:09:00,
2013-04-05 02:14:00,34.9,26.0,29.24,SSE,157,4.0,6.0,70,0.00,,,0.00,Rainwise IP-100,2013-04-05 06:14:00,
2013-04-05 02:19:00,34.7,26.0,29.23,South,180,4.0,6.0,70,0.00,,,0.00,Rainwise IP-100,2013-04-05 06:19:00,
2013-04-05 02:24:00,34.5,26.0,29.24,SSE,157,0.0,5.0,70,0.00,,,0.00,Rainwise IP-100,2013-04-05 06:24:00,
2013-04-05 02:30:00,34.0,26.0,29.23,WSW,247,3.0,5.0,71,0.00,,,0.00,Rainwise IP-100,2013-04-05 06:30:00,
2013-04-05 02:35:00,33.8,26.0,29.23,SSE,157,2.0,6.0,72,0.00,,,0.00,Rainwise IP-100,2013-04-05 06:35:00,
2013-04-05 02:40:00,33.9,28.0,29.23,SSW,202,2.0,7.0,73,0.00,,,0.00,Rainwise IP-100,2013-04-05 06:40:00,
2013-04-05 02:45:00,33.6,28.0,29.23,SSW,202,0.0,6.0,74,0.00,,,0.00,Rainwise IP-100,2013-04-05 06:45:00,
2013-04-05 02:50:00,33.3,26.0,29.23,SSW,202,0.0,5.0,74,0.00,,,0.00,Rainwise IP-100,2013-04-05 06:50:00,
2013-04-05 02:55:00,32.9,26.0,29.22,South,180,1.0,3.0,74,0.00,,,0.00,Rainwise IP-100,2013-04-05 06:55:00,
2013-04-05 03:00:00,32.7,26.0,29.22,SW,225,0.0,3.0,76,0.00,,,0.00,Rainwise IP-100,2013-04-05 07:00:00,
2013-04-05 03:06:00,32.6,26.0,29.22,South,180,0.0,5.0,76,0.00,,,0.00,Rainwise IP-100,2013-04-05 07:06:00,
2013-04-05 03:11:00,32.3,26.0,29.23,South,180,0.0,1.0,77,0.00,,,0.00,Rainwise IP-100,2013-04-05 07:11:00,
2013-04-05 03:16:00,31.8,26.0,29.23,South,180,0.0,0.0,78,0.00,,,0.00,Rainwise IP-100,2013-04-05 07:16:00,
2013-04-05 03:21:00,31.6,26.0,29.22,SSE,157,1.0,3.0,78,0.00,,,0.00,Rainwise IP-100,2013-04-05 07:21:00,
2013-04-05 03:26:00,31.8,26.0,29.22,North,360,0.0,2.0,80,0.00,,,0.00,Rainwise IP-100,2013-04-05 07:26:00,
2013-04-05 03:31:00,31.9,28.0,29.22,West,270,1.0,3.0,81,0.00,,,0.00,Rainwise IP-100,2013-04-05 07:31:00,
2013-04-05 03:37:00,32.1,26.0,29.22,WSW,247,0.0,4.0,80,0.00,,,0.00,Rainwise IP-100,2013-04-05 07:37:00,
2013-04-05 03:42:00,31.8,28.0,29.22,SSW,202,0.0,4.0,82,0.00,,,0.00,Rainwise IP-100,2013-04-05 07:42:00,
2013-04-05 03:47:00,31.5,26.0,29.21,SSW,202,0.0,1.0,80,0.00,,,0.00,Rainwise IP-100,2013-04-05 07:47:00,
2013-04-05 03:52:00,31.4,26.0,29.22,SW,225,0.0,4.0,82,0.00,,,0.00,Rainwise IP-100,2013-04-05 07:52:00,
2013-04-05 03:57:00,31.2,26.0,29.21,South,180,0.0,4.0,82,0.00,,,0.00,Rainwise IP-100,2013-04-05 07:57:00,
2013-04-05 04:02:00,31.1,26.0,29.21,SSW,202,0.0,1.0,82,0.00,,,0.00,Rainwise IP-100,2013-04-05 08:02:00,
2013-04-05 04:07:00,30.9,26.0,29.21,SSW,202,0.0,4.0,84,0.00,,,0.00,Rainwise IP-100,2013-04-05 08:07:00,
2013-04-05 04:12:00,30.7,26.0,29.21,SSW,202,0.0,2.0,83,0.00,,,0.00,Rainwise IP-100,2013-04-05 08:12:00,
2013-04-05 04:18:00,30.7,26.0,29.20,SSE,157,0.0,3.0,84,0.00,,,0.00,Rainwise IP-100,2013-04-05 08:18:00,
2013-04-05 04:23:00,30.7,26.0,29.20,SSE,157,0.0,2.0,85,0.00,,,0.00,Rainwise IP-100,2013-04-05 08:23:00,
2013-04-05 04:28:00,30.7,28.0,29.21,SSE,157,2.0,3.0,87,0.00,,,0.00,Rainwise IP-100,2013-04-05 08:28:00,
2013-04-05 04:33:00,30.6,28.0,29.21,SSE,157,0.0,2.0,86,0.00,,,0.00,Rainwise IP-100,2013-04-05 08:33:00,
2013-04-05 04:38:00,30.6,28.0,29.21,SSE,157,0.0,0.0,86,0.00,,,0.00,Rainwise IP-100,2013-04-05 08:38:00,
2013-04-05 04:43:00,30.5,28.0,29.20,South,180,0.0,3.0,87,0.00,,,0.00,Rainwise IP-100,2013-04-05 08:43:00,
2013-04-05 04:48:00,30.9,28.0,29.21,South,180,3.0,6.0,88,0.00,,,0.00,Rainwise IP-100,2013-04-05 08:48:00,
2013-04-05 04:53:00,31.4,28.0,29.20,SSE,157,2.0,7.0,90,0.00,,,0.00,Rainwise IP-100,2013-04-05 08:53:00,
2013-04-05 04:59:00,31.7,29.0,29.20,SSE,157,1.0,6.0,89,0.00,,,0.00,Rainwise IP-100,2013-04-05 08:59:00,
2013-04-05 05:04:00,32.1,29.0,29.20,SSE,157,0.0,8.0,91,0.00,,,0.00,Rainwise IP-100,2013-04-05 09:04:00,
2013-04-05 05:09:00,32.1,29.0,29.20,SSE,157,0.0,4.0,88,0.00,,,0.00,Rainwise IP-100,2013-04-05 09:09:00,
2013-04-05 05:14:00,31.9,29.0,29.20,SSE,157,0.0,2.0,88,0.00,,,0.00,Rainwise IP-100,2013-04-05 09:14:00,
2013-04-05 05:19:00,31.7,29.0,29.19,South,180,0.0,2.0,88,0.00,,,0.00,Rainwise IP-100,2013-04-05 09:19:00,
2013-04-05 05:24:00,31.7,29.0,29.19,SSE,157,0.0,5.0,88,0.00,,,0.00,Rainwise IP-100,2013-04-05 09:24:00,
2013-04-05 05:29:00,31.7,29.0,29.19,WNW,292,1.0,4.0,90,0.00,,,0.00,Rainwise IP-100,2013-04-05 09:29:00,
2013-04-05 05:34:00,31.8,31.0,29.19,ENE,67,2.0,6.0,92,0.00,,,0.00,Rainwise IP-100,2013-04-05 09:34:00,
2013-04-05 05:40:00,31.8,29.0,29.19,East,90,3.0,3.0,91,0.00,,,0.00,Rainwise IP-100,2013-04-05 09:40:00,
2013-04-05 05:45:00,31.6,29.0,29.19,South,180,2.0,3.0,89,0.00,,,0.00,Rainwise IP-100,2013-04-05 09:45:00,
2013-04-05 05:50:00,31.7,29.0,29.18,ENE,67,0.0,5.0,90,0.00,,,0.00,Rainwise IP-100,2013-04-05 09:50:00,
2013-04-05 05:55:00,31.8,29.0,29.18,South,180,3.0,7.0,90,0.00,,,0.00,Rainwise IP-100,2013-04-05 09:55:00,
2013-04-05 06:00:00,31.8,29.0,29.18,ESE,112,1.0,6.0,90,0.00,,,0.00,Rainwise IP-100,2013-04-05 10:00:00,
2013-04-05 06:05:00,31.5,29.0,29.18,South,180,0.0,4.0,90,0.00,,,0.00,Rainwise IP-100,2013-04-05 10:05:00,
2013-04-05 06:10:00,31.3,29.0,29.18,SSW,202,0.0,3.0,92,0.00,,,0.00,Rainwise IP-100,2013-04-05 10:10:00,
2013-04-05 06:15:00,31.1,28.0,29.19,SSW,202,2.0,3.0,91,0.00,,,0.00,Rainwise IP-100,2013-04-05 10:15:00,
2013-04-05 06:20:00,31.2,29.0,29.18,SE,135,0.0,7.0,93,0.00,,,0.00,Rainwise IP-100,2013-04-05 10:20:00,
2013-04-05 06:26:00,31.1,29.0,29.19,SW,225,1.0,6.0,94,0.00,,,0.00,Rainwise IP-100,2013-04-05 10:26:00,
2013-04-05 06:31:00,31.1,28.0,29.19,SSW,202,0.0,6.0,91,0.00,,,0.00,Rainwise IP-100,2013-04-05 10:31:00,
2013-04-05 06:36:00,31.0,29.0,29.18,SW,225,0.0,7.0,93,0.00,,,0.00,Rainwise IP-100,2013-04-05 10:36:00,
2013-04-05 06:41:00,30.8,29.0,29.18,SSW,202,1.0,6.0,92,0.00,,,0.00,Rainwise IP-100,2013-04-05 10:41:00,
2013-04-05 06:47:00,30.8,29.0,29.18,WSW,247,2.0,6.0,94,0.00,,,0.00,Rainwise IP-100,2013-04-05 10:47:00,
2013-04-05 06:52:00,31.0,29.0,29.18,SW,225,2.0,7.0,94,0.00,,,0.00,Rainwise IP-100,2013-04-05 10:52:00,
2013-04-05 06:57:00,31.4,29.0,29.19,WSW,247,6.0,7.0,94,0.00,,,0.00,Rainwise IP-100,2013-04-05 10:57:00,
2013-04-05 07:02:00,31.8,31.0,29.19,WSW,247,6.0,7.0,92,0.00,,,0.00,Rainwise IP-100,2013-04-05 11:02:00,
2013-04-05 07:07:00,31.9,31.0,29.19,SW,225,6.0,7.0,93,0.00,,,0.00,Rainwise IP-100,2013-04-05 11:07:00,
2013-04-05 07:12:00,32.0,31.0,29.19,SW,225,3.0,7.0,93,0.00,,,0.00,Rainwise IP-100,2013-04-05 11:12:00,
2013-04-05 07:17:00,31.9,31.0,29.19,SW,225,4.0,11.0,93,0.00,,,0.00,Rainwise IP-100,2013-04-05 11:17:00,
2013-04-05 07:22:00,32.0,31.0,29.19,SW,225,5.0,8.0,92,0.00,,,0.00,Rainwise IP-100,2013-04-05 11:22:00,
2013-04-05 07:27:00,32.2,31.0,29.18,SW,225,6.0,9.0,92,0.00,,,0.00,Rainwise IP-100,2013-04-05 11:27:00,
2013-04-05 07:33:00,32.3,31.0,29.18,SW,225,6.0,11.0,92,0.00,,,0.00,Rainwise IP-100,2013-04-05 11:33:00,
2013-04-05 07:38:00,32.3,29.0,29.18,South,180,2.0,12.0,91,0.00,,,0.00,Rainwise IP-100,2013-04-05 11:38:00,
2013-04-05 07:43:00,32.4,29.0,29.17,SSE,157,5.0,8.0,91,0.00,,,0.00,Rainwise IP-100,2013-04-05 11:43:00,
2013-04-05 07:48:00,32.6,31.0,29.17,SSE,157,5.0,6.0,90,0.00,,,0.00,Rainwise IP-100,2013-04-05 11:48:00,
2013-04-05 07:53:00,32.9,31.0,29.17,West,270,4.0,7.0,89,0.00,,,0.00,Rainwise IP-100,2013-04-05 11:53:00,
2013-04-05 07:58:00,33.3,31.0,29.18,WSW,247,5.0,7.0,89,0.00,,,0.00,Rainwise IP-100,2013-04-05 11:58:00,
2013-04-05 08:03:00,33.8,32.0,29.18,WSW,247,0.0,8.0,88,0.00,,,0.00,Rainwise IP-100,2013-04-05 12:03:00,
2013-04-05 08:09:00,34.6,31.0,29.18,South,180,0.0,9.0,86,0.00,,,0.00,Rainwise IP-100,2013-04-05 12:09:00,
2013-04-05 08:14:00,35.3,31.0,29.18,SSE,157,4.0,5.0,86,0.00,,,0.00,Rainwise IP-100,2013-04-05 12:14:00,
2013-04-05 08:19:00,36.4,32.0,29.18,SSW,202,3.0,7.0,84,0.00,,,0.00,Rainwise IP-100,2013-04-05 12:19:00,
2013-04-05 08:24:00,37.4,32.0,29.18,SSE,157,2.0,6.0,81,0.00,,,0.00,Rainwise IP-100,2013-04-05 12:24:00,
2013-04-05 08:29:00,37.8,31.0,29.18,WSW,247,5.0,7.0,72,0.00,,,0.00,Rainwise IP-100,2013-04-05 12:29:00,
2013-04-05 08:34:00,38.4,31.0,29.18,SW,225,5.0,8.0,75,0.00,,,0.00,Rainwise IP-100,2013-04-05 12:34:00,
2013-04-05 08:40:00,38.9,31.0,29.19,SSE,157,1.0,7.0,70,0.00,,,0.00,Rainwise IP-100,2013-04-05 12:40:00,
2013-04-05 08:45:00,39.4,31.0,29.19,WSW,247,2.0,6.0,70,0.00,,,0.00,Rainwise IP-100,2013-04-05 12:45:00,
2013-04-05 08:50:00,39.9,29.0,29.18,SW,225,2.0,7.0,65,0.00,,,0.00,Rainwise IP-100,2013-04-05 12:50:00,
2013-04-05 08:55:00,40.9,31.0,29.18,SW,225,3.0,6.0,65,0.00,,,0.00,Rainwise IP-100,2013-04-05 12:55:00,
2013-04-05 09:00:00,41.9,29.0,29.18,South,180,7.0,8.0,61,0.00,,,0.00,Rainwise IP-100,2013-04-05 13:00:00,
2013-04-05 09:05:00,41.9,29.0,29.19,SE,135,1.0,9.0,60,0.00,,,0.00,Rainwise IP-100,2013-04-05 13:05:00,
2013-04-05 09:10:00,41.6,29.0,29.18,SSE,157,3.0,7.0,60,0.00,,,0.00,Rainwise IP-100,2013-04-05 13:10:00,
2013-04-05 09:15:00,41.1,28.0,29.18,SW,225,7.0,7.0,59,0.00,,,0.00,Rainwise IP-100,2013-04-05 13:15:00,
2013-04-05 09:21:00,41.8,28.0,29.17,SSE,157,2.0,7.0,57,0.00,,,0.00,Rainwise IP-100,2013-04-05 13:21:00,
2013-04-05 09:26:00,42.4,28.0,29.17,ENE,67,0.0,7.0,56,0.00,,,0.00,Rainwise IP-100,2013-04-05 13:26:00,
2013-04-05 09:31:00,43.0,29.0,29.17,South,180,5.0,7.0,58,0.00,,,0.00,Rainwise IP-100,2013-04-05 13:31:00,
2013-04-05 09:36:00,43.7,29.0,29.17,South,180,7.0,9.0,54,0.00,,,0.00,Rainwise IP-100,2013-04-05 13:36:00,
2013-04-05 09:41:00,44.4,29.0,29.17,SW,225,2.0,8.0,56,0.00,,,0.00,Rainwise IP-100,2013-04-05 13:41:00,
2013-04-05 09:46:00,44.7,31.0,29.17,South,180,1.0,9.0,55,0.00,,,0.00,Rainwise IP-100,2013-04-05 13:46:00,
2013-04-05 09:52:00,45.9,29.0,29.17,ENE,67,1.0,6.0,52,0.00,,,0.00,Rainwise IP-100,2013-04-05 13:52:00,
2013-04-05 09:57:00,46.1,29.0,29.17,ENE,67,4.0,8.0,52,0.00,,,0.00,Rainwise IP-100,2013-04-05 13:57:00,
2013-04-05 10:02:00,45.9,29.0,29.17,East,90,6.0,9.0,52,0.00,,,0.00,Rainwise IP-100,2013-04-05 14:02:00,
2013-04-05 10:07:00,45.9,29.0,29.17,ESE,112,1.0,7.0,51,0.00,,,0.00,Rainwise IP-100,2013-04-05 14:07:00,
2013-04-05 10:12:00,46.3,29.0,29.17,WSW,247,2.0,5.0,50,0.00,,,0.00,Rainwise IP-100,2013-04-05 14:12:00,
2013-04-05 10:17:00,47.3,29.0,29.17,East,90,1.0,7.0,49,0.00,,,0.00,Rainwise IP-100,2013-04-05 14:17:00,
2013-04-05 10:22:00,48.6,29.0,29.17,South,180,6.0,6.0,45,0.00,,,0.00,Rainwise IP-100,2013-04-05 14:22:00,
2013-04-05 10:27:00,48.9,28.0,29.17,NNE,22,0.0,6.0,44,0.00,,,0.00,Rainwise IP-100,2013-04-05 14:27:00,
2013-04-05 10:33:00,49.5,29.0,29.17,South,180,2.0,7.0,45,0.00,,,0.00,Rainwise IP-100,2013-04-05 14:33:00,
2013-04-05 10:38:00,49.7,28.0,29.17,South,180,1.0,9.0,42,0.00,,,0.00,Rainwise IP-100,2013-04-05 14:38:00,
2013-04-05 10:43:00,50.1,26.0,29.16,NE,45,1.0,8.0,40,0.00,,,0.00,Rainwise IP-100,2013-04-05 14:43:00,
2013-04-05 10:48:00,50.4,26.0,29.16,SE,135,3.0,10.0,38,0.00,,,0.00,Rainwise IP-100,2013-04-05 14:48:00,
2013-04-05 10:53:00,50.3,24.0,29.16,NW,315,2.0,10.0,34,0.00,,,0.00,Rainwise IP-100,2013-04-05 14:53:00,
2013-04-05 10:58:00,50.1,24.0,29.16,SW,225,5.0,13.0,37,0.00,,,0.00,Rainwise IP-100,2013-04-05 14:58:00,
2013-04-05 11:03:00,50.9,26.0,29.16,South,180,7.0,8.0,37,0.00,,,0.00,Rainwise IP-100,2013-04-05 15:03:00,
2013-04-05 11:08:00,51.5,26.0,29.15,South,180,6.0,9.0,36,0.00,,,0.00,Rainwise IP-100,2013-04-05 15:08:00,
2013-04-05 11:13:00,51.7,23.0,29.15,South,180,8.0,9.0,32,0.00,,,0.00,Rainwise IP-100,2013-04-05 15:13:00,
2013-04-05 11:18:00,52.0,24.0,29.15,SSE,157,1.0,9.0,33,0.00,,,0.00,Rainwise IP-100,2013-04-05 15:18:00,
2013-04-05 11:24:00,52.0,24.0,29.15,SW,225,3.0,7.0,33,0.00,,,0.00,Rainwise IP-100,2013-04-05 15:24:00,
2013-04-05 11:29:00,52.3,18.0,29.15,WSW,247,4.0,10.0,26,0.00,,,0.00,Rainwise IP-100,2013-04-05 15:29:00,
2013-04-05 11:34:00,52.9,23.0,29.15,WSW,247,7.0,7.0,31,0.00,,,0.00,Rainwise IP-100,2013-04-05 15:34:00,
2013-04-05 11:39:00,52.4,23.0,29.15,SE,135,4.0,10.0,31,0.00,,,0.00,Rainwise IP-100,2013-04-05 15:39:00,
2013-04-05 11:44:00,53.4,24.0,29.14,SW,225,4.0,8.0,31,0.00,,,0.00,Rainwise IP-100,2013-04-05 15:44:00,
2013-04-05 11:49:00,53.7,21.0,29.14,SE,135,6.0,9.0,28,0.00,,,0.00,Rainwise IP-100,2013-04-05 15:49:00,
2013-04-05 11:55:00,53.8,23.0,29.14,NNE,22,6.0,8.0,28,0.00,,,0.00,Rainwise IP-100,2013-04-05 15:55:00,
2013-04-05 12:00:00,54.9,24.0,29.14,SW,225,1.0,7.0,29,0.00,,,0.00,Rainwise IP-100,2013-04-05 16:00:00,
2013-04-05 12:05:00,56.1,24.0,29.13,SW,225,1.0,7.0,28,0.00,,,0.00,Rainwise IP-100,2013-04-05 16:05:00,
2013-04-05 12:10:00,55.9,23.0,29.13,South,180,2.0,7.0,27,0.00,,,0.00,Rainwise IP-100,2013-04-05 16:10:00,
2013-04-05 12:15:00,54.7,18.0,29.13,WSW,247,6.0,7.0,23,0.00,,,0.00,Rainwise IP-100,2013-04-05 16:15:00,
2013-04-05 12:20:00,53.6,21.0,29.13,SW,225,6.0,9.0,28,0.00,,,0.00,Rainwise IP-100,2013-04-05 16:20:00,
2013-04-05 12:25:00,53.4,21.0,29.12,West,270,2.0,12.0,27,0.00,,,0.00,Rainwise IP-100,2013-04-05 16:25:00,
2013-04-05 12:31:00,52.5,23.0,29.12,West,270,6.0,15.0,29,0.00,,,0.00,Rainwise IP-100,2013-04-05 16:31:00,
2013-04-05 12:36:00,52.4,23.0,29.11,SW,225,12.0,16.0,31,0.00,,,0.00,Rainwise IP-100,2013-04-05 16:36:00,
2013-04-05 12:41:00,52.2,23.0,29.11,NW,315,7.0,14.0,30,0.00,,,0.00,Rainwise IP-100,2013-04-05 16:41:00,
2013-04-05 12:46:00,51.9,21.0,29.11,NW,315,10.0,16.0,28,0.00,,,0.00,Rainwise IP-100,2013-04-05 16:46:00,
2013-04-05 12:51:00,52.9,23.0,29.10,WNW,292,7.0,11.0,31,0.00,,,0.00,Rainwise IP-100,2013-04-05 16:51:00,
2013-04-05 12:56:00,52.5,23.0,29.10,SW,225,6.0,14.0,31,0.00,,,0.00,Rainwise IP-100,2013-04-05 16:56:00,
2013-04-05 13:02:00,52.1,23.0,29.10,SW,225,12.0,12.0,30,0.00,,,0.00,Rainwise IP-100,2013-04-05 17:02:00,
2013-04-05 13:07:00,53.4,23.0,29.10,WSW,247,8.0,17.0,29,0.00,,,0.00,Rainwise IP-100,2013-04-05 17:07:00,
2013-04-05 13:12:00,53.4,23.0,29.09,West,270,9.0,16.0,29,0.00,,,0.00,Rainwise IP-100,2013-04-05 17:12:00,
2013-04-05 13:17:00,53.2,23.0,29.09,WNW,292,10.0,20.0,29,0.00,,,0.00,Rainwise IP-100,2013-04-05 17:17:00,
2013-04-05 13:22:00,54.1,23.0,29.09,WNW,292,10.0,14.0,29,0.00,,,0.00,Rainwise IP-100,2013-04-05 17:22:00,
2013-04-05 13:27:00,53.4,24.0,29.09,WNW,292,7.0,21.0,31,0.00,,,0.00,Rainwise IP-100,2013-04-05 17:27:00,
2013-04-05 13:32:00,53.3,24.0,29.09,NW,315,7.0,14.0,31,0.00,,,0.00,Rainwise IP-100,2013-04-05 17:32:00,
2013-04-05 13:38:00,53.8,24.0,29.09,WSW,247,9.0,12.0,32,0.00,,,0.00,Rainwise IP-100,2013-04-05 17:38:00,
2013-04-05 13:43:00,53.5,26.0,29.09,WNW,292,8.0,17.0,33,0.00,,,0.00,Rainwise IP-100,2013-04-05 17:43:00,
2013-04-05 13:48:00,53.5,24.0,29.09,West,270,8.0,18.0,31,0.00,,,0.00,Rainwise IP-100,2013-04-05 17:48:00,
2013-04-05 13:53:00,53.4,24.0,29.09,West,270,5.0,13.0,32,0.00,,,0.00,Rainwise IP-100,2013-04-05 17:53:00,
2013-04-05 13:58:00,53.6,26.0,29.09,WNW,292,7.0,16.0,33,0.00,,,0.00,Rainwise IP-100,2013-04-05 17:58:00,
2013-04-05 14:03:00,52.9,26.0,29.09,WNW,292,11.0,20.0,34,0.00,,,0.00,Rainwise IP-100,2013-04-05 18:03:00,
2013-04-05 14:08:00,52.8,24.0,29.08,WSW,247,13.0,16.0,33,0.00,,,0.00,Rainwise IP-100,2013-04-05 18:08:00,
2013-04-05 14:13:00,53.3,26.0,29.08,WNW,292,6.0,15.0,33,0.00,,,0.00,Rainwise IP-100,2013-04-05 18:13:00,
2013-04-05 14:19:00,53.4,24.0,29.08,NW,315,9.0,15.0,31,0.00,,,0.00,Rainwise IP-100,2013-04-05 18:19:00,
2013-04-05 14:24:00,52.8,23.0,29.08,West,270,12.0,16.0,31,0.00,,,0.00,Rainwise IP-100,2013-04-05 18:24:00,
2013-04-05 14:29:00,52.9,23.0,29.08,NW,315,12.0,16.0,30,0.00,,,0.00,Rainwise IP-100,2013-04-05 18:29:00,
2013-04-05 14:34:00,53.6,24.0,29.08,NNE,22,10.0,13.0,31,0.00,,,0.00,Rainwise IP-100,2013-04-05 18:34:00,
2013-04-05 14:39:00,54.3,23.0,29.07,NW,315,16.0,16.0,29,0.00,,,0.00,Rainwise IP-100,2013-04-05 18:39:00,
2013-04-05 14:44:00,54.7,26.0,29.07,NNW,337,7.0,17.0,32,0.00,,,0.00,Rainwise IP-100,2013-04-05 18:44:00,
2013-04-05 14:50:00,53.4,24.0,29.07,West,270,6.0,16.0,31,0.00,,,0.00,Rainwise IP-100,2013-04-05 18:50:00,
2013-04-05 14:55:00,53.5,24.0,29.07,WSW,247,4.0,15.0,31,0.00,,,0.00,Rainwise IP-100,2013-04-05 18:55:00,
2013-04-05 15:00:00,53.2,23.0,29.07,West,270,8.0,16.0,30,0.00,,,0.00,Rainwise IP-100,2013-04-05 19:00:00,
2013-04-05 15:05:00,52.9,23.0,29.06,SW,225,9.0,16.0,30,0.00,,,0.00,Rainwise IP-100,2013-04-05 19:05:00,
2013-04-05 15:10:00,53.4,26.0,29.07,SW,225,11.0,13.0,33,0.00,,,0.00,Rainwise IP-100,2013-04-05 19:10:00,
2013-04-05 15:15:00,53.4,24.0,29.06,NNW,337,9.0,12.0,31,0.00,,,0.00,Rainwise IP-100,2013-04-05 19:15:00,
2013-04-05 15:20:00,54.0,24.0,29.06,NW,315,11.0,16.0,31,0.00,,,0.00,Rainwise IP-100,2013-04-05 19:20:00,
2013-04-05 15:25:00,53.6,24.0,29.06,NW,315,9.0,17.0,31,0.00,,,0.00,Rainwise IP-100,2013-04-05 19:25:00,
2013-04-05 15:31:00,53.9,23.0,29.06,NNW,337,11.0,17.0,29,0.00,,,0.00,Rainwise IP-100,2013-04-05 19:31:00,
2013-04-05 15:36:00,54.1,23.0,29.06,NE,45,3.0,16.0,28,0.00,,,0.00,Rainwise IP-100,2013-04-05 19:36:00,
2013-04-05 15:41:00,53.6,21.0,29.06,SW,225,9.0,18.0,28,0.00,,,0.00,Rainwise IP-100,2013-04-05 19:41:00,
2013-04-05 15:46:00,53.8,23.0,29.06,NNW,337,7.0,15.0,29,0.00,,,0.00,Rainwise IP-100,2013-04-05 19:46:00,
2013-04-05 15:51:00,54.8,23.0,29.06,NW,315,6.0,16.0,28,0.00,,,0.00,Rainwise IP-100,2013-04-05 19:51:00,
2013-04-05 15:56:00,54.0,23.0,29.06,NW,315,7.0,17.0,28,0.00,,,0.00,Rainwise IP-100,2013-04-05 19:56:00,
2013-04-05 16:01:00,53.9,23.0,29.06,WNW,292,10.0,18.0,28,0.00,,,0.00,Rainwise IP-100,2013-04-05 20:01:00,
2013-04-05 16:06:00,53.7,23.0,29.06,WSW,247,6.0,18.0,29,0.00,,,0.00,Rainwise IP-100,2013-04-05 20:06:00,
2013-04-05 16:12:00,53.3,24.0,29.06,West,270,12.0,15.0,31,0.00,,,0.00,Rainwise IP-100,2013-04-05 20:12:00,
2013-04-05 16:17:00,53.4,23.0,29.06,WSW,247,9.0,15.0,29,0.00,,,0.00,Rainwise IP-100,2013-04-05 20:17:00,
2013-04-05 16:22:00,53.2,23.0,29.06,WSW,247,13.0,15.0,29,0.00,,,0.00,Rainwise IP-100,2013-04-05 20:22:00,
2013-04-05 16:27:00,53.1,23.0,29.06,WNW,292,12.0,15.0,29,0.00,,,0.00,Rainwise IP-100,2013-04-05 20:27:00,
2013-04-05 16:32:00,53.1,23.0,29.06,West,270,9.0,17.0,29,0.00,,,0.00,Rainwise IP-100,2013-04-05 20:32:00,
2013-04-05 16:37:00,52.9,23.0,29.06,West,270,9.0,15.0,29,0.00,,,0.00,Rainwise IP-100,2013-04-05 20:37:00,
2013-04-05 16:42:00,53.4,23.0,29.06,SW,225,6.0,12.0,29,0.00,,,0.00,Rainwise IP-100,2013-04-05 20:42:00,
2013-04-05 16:48:00,52.9,23.0,29.06,West,270,5.0,12.0,29,0.00,,,0.00,Rainwise IP-100,2013-04-05 20:48:00,
2013-04-05 16:53:00,51.9,23.0,29.06,WNW,292,10.0,14.0,30,0.00,,,0.00,Rainwise IP-100,2013-04-05 20:53:00,
2013-04-05 16:58:00,51.2,23.0,29.06,WSW,247,6.0,13.0,32,0.00,,,0.00,Rainwise IP-100,2013-04-05 20:58:00,
2013-04-05 17:03:00,50.9,24.0,29.06,NW,315,7.0,12.0,33,0.00,,,0.00,Rainwise IP-100,2013-04-05 21:03:00,
2013-04-05 17:08:00,51.1,24.0,29.06,NNW,337,8.0,14.0,33,0.00,,,0.00,Rainwise IP-100,2013-04-05 21:08:00,
2013-04-05 17:13:00,51.3,21.0,29.06,WNW,292,9.0,12.0,30,0.00,,,0.00,Rainwise IP-100,2013-04-05 21:13:00,
2013-04-05 17:18:00,51.6,23.0,29.07,NW,315,10.0,13.0,32,0.00,,,0.00,Rainwise IP-100,2013-04-05 21:18:00,
2013-04-05 17:23:00,51.4,23.0,29.07,North,360,9.0,17.0,31,0.00,,,0.00,Rainwise IP-100,2013-04-05 21:23:00,
2013-04-05 17:28:00,51.2,23.0,29.07,WNW,292,15.0,20.0,31,0.00,,,0.00,Rainwise IP-100,2013-04-05 21:28:00,
2013-04-05 17:34:00,50.2,23.0,29.07,NNW,337,7.0,17.0,33,0.00,,,0.00,Rainwise IP-100,2013-04-05 21:34:00,
2013-04-05 17:39:00,49.5,23.0,29.07,NNW,337,12.0,13.0,34,0.00,,,0.00,Rainwise IP-100,2013-04-05 21:39:00,
2013-04-05 17:44:00,48.9,24.0,29.08,North,360,11.0,17.0,36,0.00,,,0.00,Rainwise IP-100,2013-04-05 21:44:00,
2013-04-05 17:49:00,48.8,24.0,29.08,NW,315,13.0,14.0,37,0.00,,,0.00,Rainwise IP-100,2013-04-05 21:49:00,
2013-04-05 17:54:00,48.4,24.0,29.08,North,360,12.0,19.0,37,0.00,,,0.00,Rainwise IP-100,2013-04-05 21:54:00,
2013-04-05 17:59:00,48.0,24.0,29.08,NW,315,8.0,16.0,39,0.00,,,0.00,Rainwise IP-100,2013-04-05 21:59:00,
2013-04-05 18:04:00,48.4,24.0,29.09,WNW,292,10.0,13.0,38,0.00,,,0.00,Rainwise IP-100,2013-04-05 22:04:00,
2013-04-05 18:09:00,48.0,24.0,29.09,NNW,337,6.0,11.0,38,0.00,,,0.00,Rainwise IP-100,2013-04-05 22:09:00,
2013-04-05 18:15:00,46.8,23.0,29.09,NW,315,12.0,16.0,38,0.00,,,0.00,Rainwise IP-100,2013-04-05 22:15:00,
2013-04-05 18:20:00,46.5,24.0,29.09,NNW,337,7.0,16.0,42,0.00,,,0.00,Rainwise IP-100,2013-04-05 22:20:00,
2013-04-05 18:25:00,46.1,23.0,29.09,NNW,337,7.0,13.0,40,0.00,,,0.00,Rainwise IP-100,2013-04-05 22:25:00,
2013-04-05 18:30:00,45.5,24.0,29.10,NNE,22,6.0,15.0,42,0.00,,,0.00,Rainwise IP-100,2013-04-05 22:30:00,
2013-04-05 18:35:00,45.2,24.0,29.10,NNW,337,12.0,17.0,42,0.00,,,0.00,Rainwise IP-100,2013-04-05 22:35:00,
2013-04-05 18:40:00,44.9,24.0,29.10,WNW,292,8.0,15.0,42,0.00,,,0.00,Rainwise IP-100,2013-04-05 22:40:00,
2013-04-05 18:45:00,45.1,23.0,29.10,NW,315,9.0,15.0,41,0.00,,,0.00,Rainwise IP-100,2013-04-05 22:45:00,
2013-04-05 18:50:00,44.8,23.0,29.11,NNW,337,4.0,15.0,41,0.00,,,0.00,Rainwise IP-100,2013-04-05 22:50:00,
2013-04-05 18:56:00,44.3,23.0,29.11,NW,315,7.0,12.0,42,0.00,,,0.00,Rainwise IP-100,2013-04-05 22:56:00,
2013-04-05 19:01:00,43.8,23.0,29.11,NNW,337,6.0,15.0,43,0.00,,,0.00,Rainwise IP-100,2013-04-05 23:01:00,
2013-04-05 19:06:00,43.3,23.0,29.12,North,360,7.0,16.0,43,0.00,,,0.00,Rainwise IP-100,2013-04-05 23:06:00,
2013-04-05 19:11:00,42.9,23.0,29.12,NNW,337,3.0,10.0,44,0.00,,,0.00,Rainwise IP-100,2013-04-05 23:11:00,
2013-04-05 19:16:00,42.8,24.0,29.13,NNW,337,10.0,15.0,46,0.00,,,0.00,Rainwise IP-100,2013-04-05 23:16:00,
2013-04-05 19:21:00,42.5,24.0,29.13,NW,315,7.0,14.0,47,0.00,,,0.00,Rainwise IP-100,2013-04-05 23:21:00,
2013-04-05 19:26:00,42.3,24.0,29.13,NW,315,5.0,14.0,48,0.00,,,0.00,Rainwise IP-100,2013-04-05 23:26:00,
2013-04-05 19:32:00,41.7,24.0,29.13,North,360,6.0,7.0,49,0.00,,,0.00,Rainwise IP-100,2013-04-05 23:32:00,
2013-04-05 19:37:00,41.2,26.0,29.14,NNW,337,5.0,12.0,52,0.00,,,0.00,Rainwise IP-100,2013-04-05 23:37:00,
2013-04-05 19:42:00,40.9,26.0,29.14,NE,45,5.0,10.0,55,0.00,,,0.00,Rainwise IP-100,2013-04-05 23:42:00,
2013-04-05 19:47:00,40.9,28.0,29.15,West,270,4.0,11.0,56,0.00,,,0.00,Rainwise IP-100,2013-04-05 23:47:00,
2013-04-05 19:52:00,40.8,28.0,29.15,WNW,292,9.0,12.0,56,0.00,,,0.00,Rainwise IP-100,2013-04-05 23:52:00,
2013-04-05 19:57:00,40.5,29.0,29.15,WNW,292,13.0,16.0,60,0.00,,,0.00,Rainwise IP-100,2013-04-05 23:57:00,
2013-04-05 20:02:00,39.9,28.0,29.16,West,270,11.0,17.0,61,0.00,,,0.00,Rainwise IP-100,2013-04-06 00:02:00,
2013-04-05 20:08:00,39.7,29.0,29.17,NW,315,9.0,17.0,63,0.00,,,0.00,Rainwise IP-100,2013-04-06 00:08:00,
2013-04-05 20:13:00,39.4,28.0,29.16,WNW,292,7.0,15.0,64,0.00,,,0.00,Rainwise IP-100,2013-04-06 00:13:00,
2013-04-05 20:18:00,39.1,29.0,29.17,NW,315,6.0,17.0,65,0.00,,,0.00,Rainwise IP-100,2013-04-06 00:18:00,
2013-04-05 20:23:00,38.7,29.0,29.17,NW,315,13.0,15.0,66,0.00,,,0.00,Rainwise IP-100,2013-04-06 00:23:00,
2013-04-05 20:28:00,38.3,28.0,29.18,WNW,292,8.0,13.0,67,0.00,,,0.00,Rainwise IP-100,2013-04-06 00:28:00,
2013-04-05 20:33:00,38.1,29.0,29.18,WNW,292,11.0,12.0,68,0.00,,,0.00,Rainwise IP-100,2013-04-06 00:33:00,
2013-04-05 20:38:00,37.4,29.0,29.18,WNW,292,7.0,20.0,74,0.00,,,0.00,Rainwise IP-100,2013-04-06 00:38:00,
2013-04-05 20:44:00,36.9,31.0,29.19,North,360,7.0,14.0,76,0.00,,,0.00,Rainwise IP-100,2013-04-06 00:44:00,
2013-04-05 20:49:00,36.8,31.0,29.19,WNW,292,7.0,14.0,77,0.00,,,0.00,Rainwise IP-100,2013-04-06 00:49:00,
2013-04-05 20:54:00,36.4,29.0,29.19,West,270,9.0,14.0,78,0.00,,,0.00,Rainwise IP-100,2013-04-06 00:54:00,
2013-04-05 20:59:00,36.4,31.0,29.19,NW,315,7.0,12.0,79,0.00,,,0.00,Rainwise IP-100,2013-04-06 00:59:00,
2013-04-05 21:04:00,36.3,31.0,29.20,NW,315,9.0,11.0,79,0.00,,,0.00,Rainwise IP-100,2013-04-06 01:04:00,
2013-04-05 21:09:00,36.1,31.0,29.20,NW,315,7.0,11.0,81,0.00,,,0.00,Rainwise IP-100,2013-04-06 01:09:00,
2013-04-05 21:15:00,35.7,31.0,29.20,WNW,292,7.0,12.0,82,0.00,,,0.00,Rainwise IP-100,2013-04-06 01:15:00,
2013-04-05 21:20:00,35.3,29.0,29.20,NNW,337,6.0,13.0,82,0.00,,,0.00,Rainwise IP-100,2013-04-06 01:20:00,
2013-04-05 21:25:00,34.8,31.0,29.20,NW,315,6.0,9.0,83,0.00,,,0.00,Rainwise IP-100,2013-04-06 01:25:00,
2013-04-05 21:30:00,34.4,31.0,29.20,NW,315,6.0,9.0,84,0.00,,,0.00,Rainwise IP-100,2013-04-06 01:30:00,
2013-04-05 21:35:00,34.1,31.0,29.20,WNW,292,8.0,8.0,84,0.00,,,0.00,Rainwise IP-100,2013-04-06 01:35:00,
2013-04-05 21:40:00,33.8,31.0,29.20,WNW,292,5.0,9.0,86,0.00,,,0.00,Rainwise IP-100,2013-04-06 01:40:00,
2013-04-05 21:45:00,33.8,31.0,29.20,NW,315,6.0,8.0,86,0.00,,,0.00,Rainwise IP-100,2013-04-06 01:45:00,
2013-04-05 21:50:00,33.8,31.0,29.20,WNW,292,2.0,11.0,85,0.00,,,0.00,Rainwise IP-100,2013-04-06 01:50:00,
2013-04-05 21:55:00,33.7,31.0,29.20,WNW,292,6.0,8.0,85,0.00,,,0.00,Rainwise IP-100,2013-04-06 01:55:00,
2013-04-05 22:01:00,33.6,31.0,29.19,NW,315,6.0,7.0,84,0.00,,,0.00,Rainwise IP-100,2013-04-06 02:01:00,
2013-04-05 22:06:00,33.7,31.0,29.20,WNW,292,4.0,7.0,84,0.00,,,0.00,Rainwise IP-100,2013-04-06 02:06:00,
2013-04-05 22:11:00,33.7,31.0,29.19,NW,315,2.0,6.0,83,0.00,,,0.00,Rainwise IP-100,2013-04-06 02:11:00,
2013-04-05 22:16:00,33.6,29.0,29.20,NNW,337,4.0,7.0,82,0.00,,,0.00,Rainwise IP-100,2013-04-06 02:16:00,
2013-04-05 22:21:00,33.7,29.0,29.19,NNW,337,4.0,7.0,81,0.00,,,0.00,Rainwise IP-100,2013-04-06 02:21:00,
2013-04-05 22:26:00,33.8,29.0,29.19,NNW,337,3.0,7.0,80,0.00,,,0.00,Rainwise IP-100,2013-04-06 02:26:00,
2013-04-05 22:31:00,34.2,29.0,29.19,NW,315,4.0,10.0,79,0.00,,,0.00,Rainwise IP-100,2013-04-06 02:31:00,
2013-04-05 22:37:00,34.3,28.0,29.19,NW,315,4.0,9.0,77,0.00,,,0.00,Rainwise IP-100,2013-04-06 02:37:00,
2013-04-05 22:42:00,34.4,28.0,29.20,NW,315,3.0,6.0,77,0.00,,,0.00,Rainwise IP-100,2013-04-06 02:42:00,
2013-04-05 22:47:00,34.3,28.0,29.19,North,360,1.0,8.0,75,0.00,,,0.00,Rainwise IP-100,2013-04-06 02:47:00,
2013-04-05 22:52:00,34.4,28.0,29.19,NW,315,3.0,10.0,73,0.00,,,0.00,Rainwise IP-100,2013-04-06 02:52:00,
2013-04-05 22:57:00,34.5,26.0,29.20,NW,315,2.0,9.0,72,0.00,,,0.00,Rainwise IP-100,2013-04-06 02:57:00,
2013-04-05 23:02:00,34.4,26.0,29.20,NW,315,4.0,6.0,71,0.00,,,0.00,Rainwise IP-100,2013-04-06 03:02:00,
2013-04-05 23:07:00,34.4,26.0,29.20,West,270,5.0,10.0,69,0.00,,,0.00,Rainwise IP-100,2013-04-06 03:07:00,
2013-04-05 23:12:00,34.4,26.0,29.21,WNW,292,6.0,10.0,69,0.00,,,0.00,Rainwise IP-100,2013-04-06 03:12:00,
2013-04-05 23:18:00,34.4,24.0,29.21,NNW,337,4.0,13.0,67,0.00,,,0.00,Rainwise IP-100,2013-04-06 03:18:00,
2013-04-05 23:23:00,34.1,26.0,29.21,NNW,337,7.0,8.0,68,0.00,,,0.00,Rainwise IP-100,2013-04-06 03:23:00,
2013-04-05 23:28:00,33.8,26.0,29.21,North,360,2.0,12.0,68,0.00,,,0.00,Rainwise IP-100,2013-04-06 03:28:00,
2013-04-05 23:33:00,33.4,24.0,29.21,NW,315,4.0,9.0,69,0.00,,,0.00,Rainwise IP-100,2013-04-06 03:33:00,
2013-04-05 23:38:00,33.3,24.0,29.21,North,360,4.0,12.0,69,0.00,,,0.00,Rainwise IP-100,2013-04-06 03:38:00,
2013-04-05 23:43:00,33.1,24.0,29.21,North,360,7.0,10.0,69,0.00,,,0.00,Rainwise IP-100,2013-04-06 03:43:00,
2013-04-05 23:48:00,33.3,24.0,29.21,NW,315,6.0,10.0,68,0.00,,,0.00,Rainwise IP-100,2013-04-06 03:48:00,
2013-04-05 23:53:00,33.1,24.0,29.21,North,360,0.0,11.0,68,0.00,,,0.00,Rainwise IP-100,2013-04-06 03:53:00,
2013-04-05 23:59:00,32.7,24.0,29.21,NNW,337,1.0,6.0,68,0.00,,,0.00,Rainwise IP-100,2013-04-06 03:59:00,